Overview Statistics Trail Chart Weather Telemetry Raw packets
 

This is the latest recevied weather packets stored in our database for station/object KBTL-WX. If no packets are shown the sender has not sent any weather packets the latest 10 day(s).

<< 13 14 15 16 17 18 19 >>
Time Temp. Humidity Pressure Rain* Wind** Luminosity Snow
1777628713 3.33° C 92% 981.5 hPa 0 mm - - -
1777627828 3.33° C 91% 981.4 hPa 0 mm - - -
1777626913 3.33° C 91% 981.5 hPa 0 mm - - -
1777626036 3.33° C 91% 981.5 hPa 0 mm - - -
1777625112 3.33° C 90% 981.3 hPa 0 mm - - -
1777624226 3.33° C 91% 980.6 hPa 0 mm - - -
1777623313 3.33° C 91% 980.6 hPa 0 mm - - -
1777622438 3.33° C 91% 980.6 hPa 0 mm - - -
1777621513 3.33° C 91% 981 hPa 0 mm - - -
1777620631 3.33° C 91% 981 hPa 0 mm - - -
1777619713 3.33° C 91% 981 hPa 0 mm - - -
1777618837 3.89° C 91% 981 hPa 0 mm - - -
1777617913 3.89° C 86% 981.9 hPa 0 mm - - -
1777617032 3.89° C 90% 980.8 hPa 0 mm - - -
1777616113 3.89° C 90% 980.8 hPa 0 mm - - -
1777615238 3.89° C 90% 980.8 hPa 0 mm - - -
1777614313 3.89° C 90% 982 hPa 0 mm - - -
1777613431 3.33° C 95% 981.4 hPa 0.25 mm - - -
1777612516 3.33° C 95% 981.4 hPa 0.25 mm - - -
1777611637 3.33° C 95% 981.4 hPa 0.25 mm - - -
1777610713 2.78° C 97% 982.8 hPa 1.78 mm - - -
1777609831 2.78° C 95% 981.9 hPa 1.78 mm - - -
1777608914 3.89° C 95% 982 hPa 1.27 mm - - -
1777608038 3.89° C 95% 982 hPa 1.27 mm - - -
1777607114 3.33° C 91% 982.4 hPa 1.52 mm - - -

* Rain latest hour (hover to see other rain measurements)
** Current wind speed in m/s (hover to see current wind gust speed)